User: anonymous   Login
Location: Nelson
(47.1935°N, 121.0537°W)
Time: 13:17:16
(UTC+00:00)
Language:

BlueWalker 3 - Orbit

View from above orbital plane
View from above orbital plane
View from above satellite
View from above satellite

Ground track
Ground track

The orbit data is extracted from the following two-line orbital elements,

1 53807U 22111AL  23032.25576704  .00004265  00000-0  21440-3 0  9997
2 53807  53.2063 334.4409 0013094   5.4487 354.6649 15.19273629 21775
Epoch (UTC): 01 February 2023 06:08:18
Eccentricity: 0.0013094
inclination: 53.2063°
perigee height: 499 km
apogee height: 517 km
right ascension of ascending node: 334.4409°
argument of perigee: 5.4487°
revolutions per day: 15.19273629
mean anomaly at epoch: 354.6649°
orbit number at epoch: 2177

The dashed part of the orbit path shows where the satellite is in the earth's shadow,  

DLR